Location: Sungai Bunut
(2.6333°N, 113.7333°E)
Time: 15:05:28
(UTC+00:00)

Cosmos 1697 Rocket - Pass Details

Date: 23 May 2022
Orbit: 833 x 843 km, 71.0° (Epoch: 03 July)

Event Time Altitude Azimuth Distance (km) Brightness Sun altitude
Rises 11:03:47 0° 163° (SSE) 3,387 5.5 -8.9°
Reaches altitude 10° 11:07:09 10° 143° (SE) 2,453 4.6 -9.6°
Maximum altitude 11:10:35 16° 105° (ESE) 2,034 4.0 -10.4°
Drops below altitude 10° 11:13:59 10° 67° (ENE) 2,452 4.7 -11.2°
Sets 11:17:20 0° 47° (NE) 3,385 5.6 -12.0°
